• In Hungary
  • List of Countries
  • For 7 days
  • Water Temperature
  • Satellite Maps
  • Weather Map
  • News
  • Weather Widgets
  • user-avatar
    Login

    Hourly Weather Abovyan

    Today, 22 August, Wednesday

    Time Temperature Precipitation Wind Pressure Humidity
    00:00 +21°C° 0.2 mm 2 mps 671 mmHg 74%
    01:00 +20°C° 0.1 mm 2 mps 671 mmHg 74%
    02:00 +20°C° 0.1 mm 2 mps 671 mmHg 75%
    03:00 +20°C° 0 mm 2 mps 671 mmHg 76%
    04:00 +20°C° 0.1 mm 2 mps 671 mmHg 75%
    05:00 +20°C° 0.1 mm 2 mps 671 mmHg 75%
    06:00 +20°C° 0.1 mm 2 mps 671 mmHg 75%
    07:00 +23°C° 0.1 mm 2 mps 671 mmHg 66%
    08:00 +25°C° 0.1 mm 1 mps 671 mmHg 58%
    09:00 +27°C° 0.1 mm 1 mps 672 mmHg 49%
    10:00 +28°C° 0.2 mm 1 mps 672 mmHg 46%
    11:00 +29°C° 0.2 mm 2 mps 671 mmHg 42%
    12:00 +31°C° 0.2 mm 2 mps 671 mmHg 38%
    13:00 +31°C° 0.3 mm 2 mps 671 mmHg 37%
    14:00 +31°C° 0.3 mm 2 mps 671 mmHg 36%
    15:00 +32°C° 0.3 mm 2 mps 671 mmHg 35%
    16:00 +31°C° 0.5 mm 3 mps 671 mmHg 39%
    17:00 +30°C° 0.5 mm 3 mps 671 mmHg 42%
    18:00 +29°C° 0.5 mm 3 mps 671 mmHg 46%
    19:00 +27°C° 0.2 mm 3 mps 671 mmHg 52%
    20:00 +25°C° 0.2 mm 3 mps 671 mmHg 58%
    21:00 +22°C° 0.2 mm 3 mps 671 mmHg 64%
    22:00 +22°C° 0.2 mm 3 mps 671 mmHg 66%
    23:00 +21°C° 0.2 mm 3 mps 671 mmHg 68%

    Tomorrow, 23 August, Thursday

    Time Temperature Precipitation Wind Pressure Humidity
    00:00 +21°C° 0.2 mm 3 mps 672 mmHg 70%
    01:00 +20°C° 0.2 mm 3 mps 671 mmHg 71%
    02:00 +20°C° 0.2 mm 2 mps 671 mmHg 73%
    03:00 +19°C° 0.2 mm 2 mps 671 mmHg 74%
    04:00 +19°C° 0.1 mm 2 mps 671 mmHg 74%
    05:00 +19°C° 0.1 mm 2 mps 671 mmHg 74%
    06:00 +19°C° 0.1 mm 2 mps 672 mmHg 75%
    07:00 +21°C° 0.1 mm 2 mps 672 mmHg 68%
    08:00 +24°C° 0.1 mm 2 mps 672 mmHg 60%
    09:00 +26°C° 0.1 mm 2 mps 672 mmHg 53%
    10:00 +27°C° 0 mm 2 mps 672 mmHg 50%
    11:00 +28°C° 0 mm 2 mps 672 mmHg 46%
    12:00 +29°C° 0 mm 2 mps 672 mmHg 42%
    13:00 +30°C° 0.2 mm 2 mps 672 mmHg 41%
    14:00 +30°C° 0.2 mm 3 mps 672 mmHg 40%
    15:00 +31°C° 0.2 mm 3 mps 671 mmHg 39%
    16:00 +30°C° 0.4 mm 3 mps 671 mmHg 43%
    17:00 +29°C° 0.4 mm 3 mps 671 mmHg 46%
    18:00 +28°C° 0.4 mm 4 mps 671 mmHg 50%
    19:00 +27°C° 0.2 mm 3 mps 671 mmHg 56%
    20:00 +25°C° 0.2 mm 3 mps 672 mmHg 62%
    21:00 +22°C° 0.2 mm 3 mps 672 mmHg 69%
    22:00 +22°C° 0 mm 3 mps 672 mmHg 70%
    23:00 +21°C° 0 mm 3 mps 672 mmHg 72%

    Day after tomorrow, 24 August, Friday

    Time Temperature Precipitation Wind Pressure Humidity
    00:00 +21°C° 0 mm 2 mps 672 mmHg 73%
    01:00 +20°C° 0 mm 2 mps 672 mmHg 75%
    02:00 +20°C° 0 mm 2 mps 672 mmHg 76%
    03:00 +20°C° 0 mm 2 mps 672 mmHg 77%
    04:00 +20°C° 0 mm 2 mps 672 mmHg 77%
    05:00 +19°C° 0 mm 2 mps 672 mmHg 76%
    06:00 +19°C° 0 mm 2 mps 672 mmHg 76%
    07:00 +21°C° 0 mm 2 mps 673 mmHg 67%
    08:00 +24°C° 0 mm 2 mps 673 mmHg 59%
    09:00 +27°C° 0 mm 2 mps 673 mmHg 50%
    10:00 +28°C° 0 mm 2 mps 673 mmHg 45%
    11:00 +29°C° 0 mm 3 mps 673 mmHg 41%
    12:00 +31°C° 0 mm 3 mps 672 mmHg 36%
    13:00 +31°C° 0 mm 3 mps 672 mmHg 34%
    14:00 +33°C° 0 mm 3 mps 672 mmHg 33%
    15:00 +34°C° 0 mm 3 mps 671 mmHg 32%
    16:00 +33°C° 0 mm 3 mps 671 mmHg 36%
    17:00 +31°C° 0 mm 3 mps 671 mmHg 39%
    18:00 +30°C° 0 mm 3 mps 671 mmHg 43%
    19:00 +28°C° 0.1 mm 3 mps 671 mmHg 50%
    20:00 +26°C° 0.1 mm 3 mps 671 mmHg 57%
    21:00 +24°C° 0.1 mm 3 mps 671 mmHg 64%
    22:00 +22°C° 0 mm 3 mps 671 mmHg 65%
    23:00 +22°C° 0 mm 3 mps 671 mmHg 66%

    25 August, Saturday

    Time Temperature Precipitation Wind Pressure Humidity
    00:00 +21°C° 0 mm 2 mps 671 mmHg 66%
    01:00 +21°C° 0 mm 2 mps 671 mmHg 67%
    02:00 +20°C° 0 mm 2 mps 671 mmHg 67%
    03:00 +20°C° 0 mm 2 mps 671 mmHg 67%
    04:00 +20°C° 0 mm 2 mps 671 mmHg 67%
    05:00 +20°C° 0 mm 2 mps 671 mmHg 67%
    06:00 +21°C° 0 mm 1 mps 671 mmHg 66%
    07:00 +23°C° 0 mm 1 mps 671 mmHg 57%
    08:00 +26°C° 0 mm 1 mps 671 mmHg 48%
    09:00 +28°C° 0 mm 1 mps 672 mmHg 39%
    10:00 +30°C° 0 mm 1 mps 671 mmHg 36%
    11:00 +31°C° 0 mm 2 mps 671 mmHg 32%
    12:00 +34°C° 0 mm 2 mps 671 mmHg 29%
    13:00 +34°C° 0 mm 2 mps 671 mmHg 27%
    14:00 +35°C° 0 mm 2 mps 670 mmHg 26%
    15:00 +35°C° 0 mm 2 mps 670 mmHg 25%
    16:00 +34°C° 0 mm 2 mps 670 mmHg 29%
    17:00 +32°C° 0 mm 2 mps 670 mmHg 33%
    18:00 +31°C° 0 mm 2 mps 669 mmHg 37%
    19:00 +29°C° 0 mm 2 mps 670 mmHg 45%
    20:00 +27°C° 0 mm 3 mps 670 mmHg 53%
    21:00 +25°C° 0 mm 3 mps 670 mmHg 61%
    22:00 +25°C° 0 mm 3 mps 670 mmHg 63%
    23:00 +24°C° 0 mm 3 mps 670 mmHg 65%

    26 August, Sunday

    Time Temperature Precipitation Wind Pressure Humidity
    00:00 +23°C° 0 mm 2 mps 670 mmHg 68%
    01:00 +23°C° 0 mm 2 mps 669 mmHg 68%
    02:00 +23°C° 0 mm 2 mps 669 mmHg 68%
    03:00 +21°C° 0 mm 2 mps 669 mmHg 68%
    04:00 +21°C° 0 mm 2 mps 669 mmHg 67%
    05:00 +21°C° 0 mm 2 mps 669 mmHg 67%
    06:00 +21°C° 0 mm 2 mps 669 mmHg 66%
    07:00 +24°C° 0 mm 1 mps 669 mmHg 58%
    08:00 +27°C° 0 mm 1 mps 670 mmHg 49%
    09:00 +29°C° 0 mm 1 mps 670 mmHg 41%
    10:00 +30°C° 0 mm 2 mps 670 mmHg 36%
    11:00 +32°C° 0 mm 2 mps 670 mmHg 32%
    12:00 +34°C° 0 mm 2 mps 669 mmHg 28%
    13:00 +35°C° 0 mm 2 mps 669 mmHg 27%
    14:00 +35°C° 0 mm 2 mps 669 mmHg 25%
    15:00 +36°C° 0 mm 2 mps 668 mmHg 24%
    16:00 +35°C° 0 mm 2 mps 668 mmHg 28%
    17:00 +32°C° 0 mm 2 mps 668 mmHg 32%
    18:00 +31°C° 0 mm 2 mps 668 mmHg 36%
    19:00 +29°C° 0 mm 2 mps 668 mmHg 43%
    20:00 +27°C° 0 mm 3 mps 668 mmHg 51%
    21:00 +25°C° 0 mm 3 mps 668 mmHg 58%
    22:00 +25°C° 0 mm 3 mps 668 mmHg 58%
    23:00 +24°C° 0 mm 3 mps 668 mmHg 59%

    27 August, Monday

    Time Temperature Precipitation Wind Pressure Humidity
    00:00 +22°C° 0 mm 3 mps 668 mmHg 59%
    01:00 +23°C° 0 mm 2 mps 668 mmHg 59%
    02:00 +21°C° 0 mm 2 mps 668 mmHg 59%
    03:00 +21°C° 0 mm 2 mps 668 mmHg 58%
    04:00 +21°C° 0 mm 2 mps 668 mmHg 58%
    05:00 +21°C° 0 mm 2 mps 668 mmHg 58%
    06:00 +20°C° 0 mm 2 mps 668 mmHg 58%
    07:00 +24°C° 0 mm 2 mps 668 mmHg 51%
    08:00 +26°C° 0 mm 1 mps 669 mmHg 44%
    09:00 +29°C° 0 mm 1 mps 669 mmHg 37%
    10:00 +30°C° 0 mm 1 mps 669 mmHg 33%
    11:00 +32°C° 0 mm 1 mps 669 mmHg 30%
    12:00 +33°C° 0 mm 1 mps 669 mmHg 27%
    13:00 +33°C° 0 mm 1 mps 668 mmHg 26%
    14:00 +35°C° 0 mm 2 mps 668 mmHg 25%
    15:00 +35°C° 0 mm 2 mps 668 mmHg 24%
    16:00 +34°C° 0 mm 2 mps 668 mmHg 28%
    17:00 +32°C° 0 mm 2 mps 668 mmHg 32%
    18:00 +31°C° 0 mm 3 mps 668 mmHg 36%
    19:00 +29°C° 0 mm 3 mps 668 mmHg 41%
    20:00 +27°C° 0 mm 3 mps 668 mmHg 47%
    21:00 +25°C° 0 mm 3 mps 668 mmHg 53%
    22:00 +25°C° 0 mm 3 mps 668 mmHg 53%
    23:00 +24°C° 0 mm 3 mps 669 mmHg 52%
    Show more